{"data":{"norad_id":56923,"epoch":"2026-05-24T22:54:00.744192Z","epoch_age_seconds":72247,"freshness":"FRESH","line1":"1 56923U 23083AZ  26144.95417528  .00004980  00000+0  19036-3 0  9991","line2":"2 56923  43.0014 359.8138 0001186 255.2913 104.7807 15.27581220163469","mean_motion":15.2758122,"eccentricity":0.0001186,"inclination_deg":43.0014,"raan_deg":359.8138,"arg_perigee_deg":255.2913,"mean_anomaly_deg":104.7807,"bstar":0.00019036,"rev_number":16346,"period_min":94.266673427682,"perigee_km":482.23170668546,"apogee_km":483.85917916092,"semimajor_km":6861.1824429232,"source":"CELESTRAK","updated_at":"2026-05-25T13:38:18.206659Z"}}